"2009-03-21 00:00:00",728978,1.384,289.1,13.78,0.201,13.93,106.3517,15.53,16.59,21.83,0,110.7,13.24,16.34,251.1
"2009-03-21 00:00:30",728979,1.402,303.3,9.21,0.154,13.84,106.3287,15.47,16.57,21.97,0,110.7,13.24,16.28,265.3
"2009-03-21 00:01:00",728980,1.498,293.1,12.21,0.351,13.79,106.3026,15.41,16.52,22.12,0,110.7,13.24,16.21,255.1
"2009-03-21 00:01:30",728981,1.94,321.5,4.022,0.186,13.68,106.2951,15.39,16.48,22.21,0,110.7,13.24,16.19,283.5
"2009-03-21 00:02:00",728982,2.514,308.4,11.14,0.239,13.93,106.2966,15.39,16.45,22.29,0,110.7,13.24,16.20,270.4
"2009-03-21 00:02:30",728983,2.65,301,9.64,0.287,14.16,106.2662,15.31,16.41,22.33,0,110.7,13.24,16.12,263.0
"2009-03-21 00:03:00",728984,2.049,301.4,3.86,0.313,14.27,106.263,15.31,16.37,22.43,0,110.7,13.24,16.11,263.4
"2009-03-21 00:03:30",728985,1.644,305.1,6.006,0.162,14.32,106.2389,15.24,16.32,22.52,0,110.7,13.24,16.05,267.1
"2009-03-21 00:04:00",728986,1.539,308.1,4.553,0.263,14.36,106.2341,15.23,16.28,22.62,0,110.7,13.23,16.04,270.1
"2009-03-21 00:04:30",728987,1.76,309.6,2.924,0.139,14.41,106.2374,15.24,16.25,22.53,0,110.7,13.24,16.05,271.6
"2009-03-21 00:05:00",728988,1.261,295.3,8.25,0.175,14.43,106.2274,15.22,16.24,22.47,0,110.7,13.24,16.02,257.3
"2009-03-21 00:05:30",728989,1.242,303.2,4.597,0.172,14.37,106.2164,15.19,16.22,22.48,0,110.7,13.24,15.99,265.2
"2009-03-21 00:06:00",728990,1.33,309.7,3.366,0.117,14.48,106.2279,15.22,16.22,22.51,0,110.7,13.24,16.02,271.7
"2009-03-21 00:06:30",728991,1.456,311.9,2.251,0.112,14.58,106.2373,15.24,16.21,22.54,0,110.7,13.24,16.05,273.9
"2009-03-21 00:07:00",728992,1.514,305.3,4.262,0.057,14.56,106.2424,15.25,16.21,22.48,0,110.7,13.24,16.06,267.3
"2009-03-21 00:07:30",728993,1.366,292.7,4.813,0.213,14.6,106.2455,15.26,16.22,22.44,0,110.7,13.24,16.07,254.7
"2009-03-21 00:08:00",728994,1.409,283.4,2.221,0.171,14.51,106.2458,15.26,16.23,22.39,0,110.7,13.24,16.07,245.4
"2009-03-21 00:08:30",728995,2.197,288.1,6.231,0.339,14.6,106.2458,15.26,16.24,22.34,0,110.7,13.24,16.07,250.1
"2009-03-21 00:09:00",728996,2.5,291.9,5.766,0.175,14.66,106.2458,15.26,16.23,22.48,0,110.7,13.24,16.07,253.9
"2009-03-21 00:09:30",728997,2.569,309.7,4.535,0.125,14.67,106.2432,15.26,16.24,22.55,0,110.7,13.24,16.06,271.7
"2009-03-21 00:10:00",728998,2.643,325.5,3.362,0.203,14.65,106.2368,15.24,16.25,22.56,0,110.7,13.24,16.04,287.5
"2009-03-21 00:10:30",728999,2.508,321.4,4.863,0.366,14.57,106.2227,15.2,16.25,22.55,0,110.7,13.24,16.01,283.4
"2009-03-21 00:11:00",729000,2.543,318.3,2.255,0.197,14.54,106.2131,15.18,16.23,22.59,0,110.7,13.25,15.98,280.3
"2009-03-21 00:11:30",729001,2.553,317.5,3.21,0.138,14.59,106.2131,15.18,16.23,22.61,0,110.7,13.25,15.98,279.5
"2009-03-21 00:12:00",729002,2.711,308.3,4.675,0.279,14.7,106.212,15.18,16.22,22.64,0,110.7,13.25,15.98,270.3
"2009-03-21 00:12:30",729003,3.025,307.6,5.26,0.115,14.76,106.212,15.18,16.22,22.63,0,110.7,13.25,15.98,269.6
"2009-03-21 00:13:00",729004,2.808,302,2.447,0.125,14.75,106.212,15.18,16.23,22.63,0,110.7,13.25,15.98,264.0
"2009-03-21 00:13:30",729005,2.532,296.9,3.433,0.246,14.77,106.212,15.18,16.22,22.6,0,110.7,13.25,15.98,258.9
"2009-03-21 00:14:00",729006,2.355,302.9,3.153,0.287,14.72,106.212,15.18,16.21,22.61,0,110.7,13.25,15.98,264.9
"2009-03-21 00:14:30",729007,1.798,308.2,4.566,0.139,14.81,106.212,15.18,16.23,22.61,0,110.7,13.25,15.98,270.2
"2009-03-21 00:15:00",729008,2.097,320.3,4.904,0.25,14.81,106.212,15.18,16.22,22.6,0,110.7,13.25,15.98,282.3
"2009-03-21 00:15:30",729009,2.002,319,2.563,0.141,14.81,106.2067,15.16,16.21,22.56,0,110.7,13.25,15.97,281.0
"2009-03-21 00:16:00",729010,1.897,314.8,3.812,0.117,14.74,106.1981,15.14,16.2,22.54,0,110.6,13.25,15.95,276.8
"2009-03-21 00:16:30",729011,1.925,311.1,7.136,0.145,14.81,106.1856,15.11,16.2,22.54,0,110.7,13.25,15.91,273.1
"2009-03-21 00:17:00",729012,1.595,312.3,3.513,0.149,14.88,106.1842,15.1,16.2,22.54,0,110.7,13.25,15.91,274.3
"2009-03-21 00:17:30",729013,1.383,311.2,3.908,0.077,14.85,106.1836,15.1,16.19,22.53,0,110.7,13.25,15.91,273.2
"2009-03-21 00:18:00",729014,1.534,314.1,5.554,0.112,14.86,106.1896,15.12,16.19,22.52,0,110.7,13.25,15.92,276.1
"2009-03-21 00:18:30",729015,1.735,308.8,3.125,0.097,14.87,106.1912,15.12,16.18,22.56,0,110.6,13.25,15.93,270.8
"2009-03-21 00:19:00",729016,1.651,309.6,2.722,0.083,14.96,106.1856,15.11,16.17,22.58,0,110.6,13.26,15.91,271.6
"2009-03-21 00:19:30",729017,1.273,304.9,6.855,0.146,14.9,106.1741,15.08,16.16,22.6,0,110.6,13.25,15.88,266.9
"2009-03-21 00:20:00",729018,1.235,300.3,4.331,0.063,14.87,106.172,15.07,16.15,22.63,0,110.6,13.25,15.88,262.3
"2009-03-21 00:20:30",729019,0.714,298.1,3.283,0.205,14.89,106.1777,15.09,16.15,22.63,0,110.6,13.25,15.89,260.1
"2009-03-21 00:21:00",729020,0.687,282,6.31,0.105,14.89,106.1788,15.09,16.13,22.64,0,110.6,13.25,15.90,244.0
"2009-03-21 00:21:30",729021,0.802,286.4,4.781,0.068,14.82,106.1801,15.09,16.13,22.59,0,110.6,13.25,15.90,248.4
"2009-03-21 00:22:00",729022,0.863,280.6,7.378,0.152,14.92,106.1753,15.08,16.1,22.61,0,110.6,13.25,15.89,242.6
"2009-03-21 00:22:30",729023,1.082,294.5,2.584,0.118,15.04,106.1564,15.03,16.11,22.59,0,110.6,13.25,15.84,256.5
"2009-03-21 00:23:00",729024,1.116,286.2,2.832,0.135,14.88,106.1466,15.01,16.11,22.62,0,110.6,13.25,15.81,248.2
"2009-03-21 00:23:30",729025,0.986,295,7.067,0.129,14.99,106.1466,15.01,16.08,22.64,0,110.6,13.26,15.81,257.0
"2009-03-21 00:24:00",729026,1.286,298.6,4.005,0.104,14.95,106.1466,15.01,16.07,22.66,0,110.6,13.26,15.81,260.6
"2009-03-21 00:24:30",729027,1.274,304.9,3.621,0.068,14.84,106.1454,15.01,16.08,22.66,0,110.6,13.26,15.81,266.9
"2009-03-21 00:25:00",729028,1.226,309.4,2.35,0.059,14.86,106.1325,14.97,16.06,22.68,0,110.6,13.27,15.78,271.4
"2009-03-21 00:25:30",729029,1.065,306.1,4.585,0.07,14.92,106.1156,14.93,16.04,22.7,0,110.6,13.27,15.73,268.1
"2009-03-21 00:26:00",729030,1.275,304.8,4.752,0.117,14.92,106.1128,14.92,16.02,22.71,0,110.6,13.27,15.73,266.8
"2009-03-21 00:26:30",729031,1.305,307.8,3.067,0.129,14.91,106.1128,14.92,16.02,22.74,0,110.6,13.27,15.73,269.8
"2009-03-21 00:27:00",729032,1.316,315.3,1.367,0.178,15.06,106.1044,14.9,15.99,22.74,0,110.6,13.27,15.70,277.3
"2009-03-21 00:27:30",729033,1.397,318.2,2.514,0.143,15.05,106.0855,14.85,16,22.78,0,110.6,13.27,15.66,280.2
"2009-03-21 00:28:00",729034,1.267,306.2,5.216,0.167,14.97,106.0802,14.84,15.98,22.84,0,110.6,13.27,15.64,268.2
"2009-03-21 00:28:30",729035,1.361,313.2,6.964,0.08,14.99,106.0826,14.84,15.97,22.88,0,110.6,13.27,15.65,275.2
"2009-03-21 00:29:00",729036,1.428,319.6,5.449,0.13,15.03,106.0886,14.86,15.95,22.92,0,110.6,13.27,15.66,281.6
"2009-03-21 00:29:30",729037,1.329,305.7,3.789,0.143,14.94,106.0752,14.83,15.93,22.95,0,110.6,13.27,15.63,267.7
"2009-03-21 00:30:00",729038,1.227,290,6.835,0.125,14.98,106.0682,14.81,15.91,22.98,0,110.6,13.27,15.61,252.0
"2009-03-21 00:30:30",729039,1.062,286.2,11.02,0.117,14.97,106.0706,14.81,15.9,23,0,110.6,13.27,15.62,248.2
"2009-03-21 00:31:00",729040,0.962,296.8,4.55,0.055,15.1,106.0754,14.83,15.88,23.02,0,110.6,13.28,15.63,258.8
"2009-03-21 00:31:30",729041,0.897,293.8,5.205,0.078,15.01,106.0742,14.82,15.87,23.03,0,110.6,13.28,15.63,255.8
"2009-03-21 00:32:00",729042,0.922,296.5,4.871,0.048,15.07,106.0681,14.81,15.84,23.05,0,110.6,13.28,15.61,258.5
"2009-03-21 00:32:30",729043,1.165,305.6,2.924,0.094,14.87,106.0509,14.76,15.84,23.06,0,110.6,13.28,15.57,267.6
"2009-03-21 00:33:00",729044,1.163,307.4,1.819,0.123,14.9,106.0473,14.75,15.83,23.07,0,110.6,13.28,15.56,269.4
"2009-03-21 00:33:30",729045,0.851,309.7,3.237,0.182,14.97,106.0473,14.75,15.82,23.1,0,110.5,13.28,15.56,271.7
"2009-03-21 00:34:00",729046,0.671,311.6,4.792,0.064,15.1,106.0473,14.75,15.8,23.13,0,110.5,13.28,15.56,273.6
"2009-03-21 00:34:30",729047,0.661,312,3.102,0.111,15.06,106.0397,14.73,15.79,23.13,0,110.5,13.28,15.54,274.0
"2009-03-21 00:35:00",729048,0.47,307.4,2.344,0.05,15.06,106.025,14.7,15.78,23.14,0,110.5,13.28,15.50,269.4
"2009-03-21 00:35:30",729049,0.407,302.9,4.537,0.07,14.88,106.0138,14.67,15.77,23.15,0,110.5,13.28,15.47,264.9
"2009-03-21 00:36:00",729050,0.493,284.4,10.86,0.065,15.04,106.0135,14.67,15.77,23.17,0,110.5,13.28,15.47,246.4
"2009-03-21 00:36:30",729051,0.59,290,5.859,0.045,14.92,106.0135,14.67,15.75,23.16,0,110.5,13.28,15.47,252.0
"2009-03-21 00:37:00",729052,0.56,289.1,8.32,0.071,14.97,106.0135,14.67,15.73,23.16,0,110.5,13.28,15.47,251.1
"2009-03-21 00:37:30",729053,0.421,285.3,5.859,0.036,14.99,106.0104,14.66,15.72,23.17,0,110.5,13.28,15.46,247.3
"2009-03-21 00:38:00",729054,0.377,284.7,4.942,0.039,15.08,105.9997,14.63,15.72,23.18,0,110.5,13.28,15.44,246.7
"2009-03-21 00:38:30",729055,0.406,273.1,5.077,0.055,15.2,105.9884,14.6,15.72,23.19,0,110.5,13.28,15.41,235.1
"2009-03-21 00:39:00",729056,0.454,274.8,6.5,0.051,15.17,105.9797,14.58,15.69,23.27,0,110.5,13.28,15.38,236.8
"2009-03-21 00:39:30",729057,0.468,272.6,5.528,0.073,15.18,105.9797,14.58,15.68,23.36,0,110.5,13.28,15.38,234.6
"2009-03-21 00:40:00",729058,0.431,273.4,4.492,0.113,15.17,105.9778,14.58,15.65,23.48,0,110.5,13.28,15.38,235.4
"2009-03-21 00:40:30",729059,0.526,262.9,5.254,0.057,15.11,105.9629,14.54,15.63,23.52,0,110.5,13.28,15.34,224.9
"2009-03-21 00:41:00",729060,0.717,268.6,6.196,0.21,15.15,105.9576,14.52,15.64,23.53,0,110.5,13.28,15.33,230.6
"2009-03-21 00:41:30",729061,1.083,264.2,6.743,0.137,15.03,105.9579,14.52,15.62,23.6,0,110.5,13.28,15.33,226.2
"2009-03-21 00:42:00",729062,1.283,267.3,2.853,0.101,15.09,105.9656,14.54,15.61,23.69,0,110.5,13.29,15.35,229.3
"2009-03-21 00:42:30",729063,2.287,273.6,8.13,1.314,17.09,105.9671,14.55,15.71,23.85,0,110.5,13.25,15.35,235.6
"2009-03-21 00:43:00",729064,2.064,269,6.773,1.031,16.24,105.9719,14.56,15.74,23.92,0,110.5,13.25,15.36,231.0
"2009-03-21 00:43:30",729065,2.073,267.7,5.724,1.01,15.52,105.967,14.55,15.59,23.77,0,110.5,13.26,15.35,229.7
"2009-03-21 00:44:00",729066,1.663,274.7,4.528,0.106,14.51,105.9494,14.5,15.56,23.81,0,110.5,13.29,15.31,236.7
"2009-03-21 00:44:30",729067,1.398,271,9.1,0.075,14.41,105.9471,14.5,15.57,23.84,0,110.5,13.29,15.30,233.0
"2009-03-21 00:45:00",729068,1.553,255.9,3.655,0.08,14.26,105.9476,14.5,15.54,23.85,0,110.5,13.29,15.30,217.9
"2009-03-21 00:45:30",729069,1.699,257.3,1.396,0.075,14.29,105.948,14.5,15.54,23.86,0,110.5,13.29,15.30,219.3
"2009-03-21 00:46:00",729070,1.844,259.7,2.418,0.136,14.24,105.9432,14.49,15.52,23.91,0,110.5,13.29,15.29,221.7
"2009-03-21 00:46:30",729071,1.906,259.8,6.846,0.11,14.35,105.926,14.44,15.51,23.93,0,110.5,13.29,15.25,221.8
"2009-03-21 00:47:00",729072,1.86,271.5,1.739,0.093,14.45,105.9142,14.41,15.57,24.02,0,110.5,13.29,15.22,233.5
"2009-03-21 00:47:30",729073,3.41,277.1,8.47,1.356,17.53,105.9142,14.41,15.62,24.11,0,110.5,13.26,15.22,239.1
"2009-03-21 00:48:00",729074,2.846,278.7,7.605,1.351,16.86,105.9142,14.41,15.72,24.29,0,110.5,13.26,15.22,240.7
"2009-03-21 00:48:30",729075,2.349,280.5,5.82,1.202,14.83,105.9142,14.41,15.46,24.09,0,110.5,13.26,15.22,242.5
"2009-03-21 00:49:00",729076,1.91,276.1,5.661,0.159,13.23,105.9085,14.4,15.53,24.26,0,110.5,13.3,15.20,238.1
"2009-03-21 00:49:30",729077,3.262,289.1,6.986,1.386,15.47,105.893,14.36,15.56,24.36,0,110.5,13.26,15.16,251.1
"2009-03-21 00:50:00",729078,2.077,270.4,4.274,0.226,12.85,105.882,14.33,15.44,24.33,0,110.5,13.29,15.13,232.4
"2009-03-21 00:50:30",729079,1.858,269.6,4.195,0.135,12.67,105.8804,14.33,15.42,24.25,0,110.5,13.3,15.13,231.6
"2009-03-21 00:51:00",729080,2.166,278.5,2.508,0.104,12.8,105.8804,14.33,15.42,24.33,0,110.5,13.3,15.13,240.5
"2009-03-21 00:51:30",729081,1.864,277.9,6.661,0.121,12.95,105.8804,14.33,15.41,24.42,0,110.4,13.3,15.13,239.9
"2009-03-21 00:52:00",729082,1.552,269.7,5.737,0.195,13.26,105.8773,14.32,15.39,24.38,0,110.4,13.3,15.12,231.7
"2009-03-21 00:52:30",729083,1.673,270.6,5.161,0.07,13.59,105.8606,14.28,15.38,24.3,0,110.4,13.3,15.08,232.6
"2009-03-21 00:53:00",729084,1.873,269.5,4.546,0.162,13.69,105.8488,14.25,15.38,24.31,0,110.4,13.3,15.05,231.5
"2009-03-21 00:53:30",729085,1.927,265,1.029,0.095,14.03,105.8469,14.24,15.35,24.36,0,110.4,13.3,15.04,227.0
"2009-03-21 00:54:00",729086,1.965,263.4,2.749,0.095,14.27,105.849,14.25,15.34,24.41,0,110.4,13.3,15.05,225.4
"2009-03-21 00:54:30",729087,1.854,264.3,3.01,0.136,14.42,105.8528,14.26,15.33,24.43,0,110.4,13.3,15.06,226.3
"2009-03-21 00:55:00",729088,2.652,272.6,8.38,1.336,16.58,105.8543,14.26,15.46,24.52,0,110.4,13.26,15.06,234.6
"2009-03-21 00:55:30",729089,2.042,266.7,4.982,1.194,16.37,105.8507,14.25,15.47,24.53,0,110.4,13.26,15.05,228.7
"2009-03-21 00:56:00",729090,1.04,256.8,3.335,0.038,14.33,105.8518,14.25,15.33,24.37,0,110.4,13.3,15.06,218.8
"2009-03-21 00:56:30",729091,1.058,262.6,2.811,0.057,14.1,105.8407,14.22,15.3,24.36,0,110.4,13.3,15.03,224.6
"2009-03-21 00:57:00",729092,0.975,256.2,3.515,0.071,13.88,105.8408,14.23,15.29,24.39,0,110.4,13.3,15.03,218.2
"2009-03-21 00:57:30",729093,0.757,253.9,2.999,0.056,13.82,105.8435,14.23,15.28,24.39,0,110.4,13.3,15.03,215.9
"2009-03-21 00:58:00",729094,0.629,245.1,5.553,0.068,13.92,105.8465,14.24,15.27,24.38,0,110.4,13.3,15.04,207.1
"2009-03-21 00:58:30",729095,0.498,251.3,2.913,0.035,13.97,105.8483,14.24,15.26,24.36,0,110.4,13.3,15.05,213.3
"2009-03-21 00:59:00",729096,0.41,253.4,2.484,0.047,14.18,105.8468,14.24,15.28,24.37,0,110.4,13.31,15.04,215.4
"2009-03-21 00:59:30",729097,0.241,256.1,3.816,0.054,14.44,105.8401,14.22,15.25,24.38,0,110.4,13.31,15.02,218.1
"2009-03-21 01:00:00",729098,0.118,246.8,6.54,0.05,14.33,105.8305,14.2,15.25,24.41,0,110.4,13.31,15.00,208.8
"2009-03-21 01:00:30",729099,0.09,241,4.118,0.023,14.38,105.8161,14.16,15.25,24.4,0,110.4,13.31,14.96,203.0
"2009-03-21 01:01:00",729100,0.065,217.9,7.165,0.033,14.13,105.8147,14.16,15.23,24.4,0,110.4,13.31,14.96,179.9
"2009-03-21 01:01:30",729101,0.846,223.2,6.905,1.234,15.84,105.8147,14.16,15.37,24.55,0,110.4,13.28,14.96,185.2
"2009-03-21 01:02:00",729102,0.495,221.2,5.496,0.956,14.62,105.8147,14.16,15.27,24.46,0,110.4,13.28,14.96,183.2
"2009-03-21 01:02:30",729103,0.121,210.4,7.274,0.038,13.99,105.8147,14.16,15.2,24.43,0,110.4,13.31,14.96,172.4
"2009-03-21 01:03:00",729104,0.091,206.6,7.354,0.057,13.91,105.8147,14.16,15.19,24.46,0,110.4,13.31,14.96,168.6
"2009-03-21 01:03:30",729105,0.031,269.9,16.08,0.076,14.06,105.8133,14.15,15.2,24.56,0,110.4,13.31,14.96,231.9
"2009-03-21 01:04:00",729106,0.231,223,11.3,0.099,13.92,105.808,14.14,15.18,24.64,0,110.4,13.31,14.94,185.0
"2009-03-21 01:04:30",729107,0.478,236.8,5.924,0.088,14.04,105.8004,14.12,15.2,24.67,0,110.4,13.31,14.92,198.8
"2009-03-21 01:05:00",729108,1.773,236.2,5.617,1.387,16.54,105.7849,14.08,15.3,24.82,0,110.4,13.28,14.88,198.2
"2009-03-21 01:05:30",729109,0.383,224,6.206,0.053,14.01,105.7812,14.07,15.24,24.79,0,110.4,13.32,14.87,186.0
"2009-03-21 01:06:00",729110,1.6,247.6,11.91,1.362,16.08,105.7809,14.07,15.24,24.83,0,110.4,13.28,14.87,209.6
"2009-03-21 01:06:30",729111,0.543,247.4,7.626,0.734,14.31,105.7809,14.07,15.3,24.98,0,110.4,13.28,14.87,209.4
"2009-03-21 01:07:00",729112,0.483,251.9,7.312,0.123,12.65,105.7809,14.07,15.1,24.8,0,110.4,13.32,14.87,213.9
"2009-03-21 01:07:30",729113,0.475,250.1,9.55,0.061,12.45,105.7806,14.07,15.1,24.92,0,110.4,13.32,14.87,212.1
"2009-03-21 01:08:00",729114,0.602,234,4.167,0.063,12.45,105.7728,14.05,15.1,24.95,0,110.4,13.32,14.85,196.0
"2009-03-21 01:08:30",729115,0.679,240,2.341,0.049,12.54,105.7581,14.01,15.08,24.93,0,110.4,13.32,14.81,202.0
"2009-03-21 01:09:00",729116,0.536,244.1,5.878,0.088,12.88,105.7491,13.99,15.07,24.95,0,110.4,13.32,14.79,206.1
"2009-03-21 01:09:30",729117,0.742,246.2,6.347,0.094,12.99,105.7486,13.99,15.07,25.04,0,110.4,13.32,14.79,208.2
"2009-03-21 01:10:00",729118,0.727,247,9.27,0.076,13.26,105.7477,13.99,15.04,25.05,0,110.4,13.31,14.79,209.0
"2009-03-21 01:10:30",729119,0.666,242.8,12.02,0.07,13.46,105.7513,14,15.06,25.07,0,110.4,13.32,14.80,204.8
"2009-03-21 01:11:00",729120,0.905,226.2,2.234,0.045,13.86,105.7543,14,15.04,25.08,0,110.4,13.32,14.80,188.2
"2009-03-21 01:11:30",729121,1.775,235.4,9.05,1.241,15.76,105.7572,14.01,15.12,25.13,0,110.4,13.28,14.81,197.4
"2009-03-21 01:12:00",729122,1.389,233,6.169,1.013,15.3,105.7554,14.01,15.19,25.21,0,110.4,13.28,14.81,195.0
"2009-03-21 01:12:30",729123,1.622,237.1,4.937,1.206,14.99,105.7453,13.98,15.01,25.08,0,110.4,13.28,14.78,199.1
"2009-03-21 01:13:00",729124,0.825,238.6,1.77,0.073,13.77,105.7305,13.94,15.03,25.12,0,110.4,13.32,14.74,200.6
"2009-03-21 01:13:30",729125,0.69,237.2,3.368,0.05,13.68,105.7312,13.94,15.01,25.16,0,110.4,13.32,14.75,199.2
"2009-03-21 01:14:00",729126,0.752,236.6,1.512,0.046,13.72,105.7368,13.96,15,25.18,0,110.4,13.32,14.76,198.6
"2009-03-21 01:14:30",729127,0.663,241.4,1.11,0.065,13.84,105.7398,13.97,15,25.19,0,110.4,13.32,14.77,203.4
"2009-03-21 01:15:00",729128,0.527,245.5,4.055,0.028,13.93,105.7446,13.98,14.98,25.18,0,110.4,13.32,14.78,207.5
"2009-03-21 01:15:30",729129,0.522,254.6,2.651,0.046,14.04,105.7436,13.98,14.98,25.2,0,110.4,13.32,14.78,216.6
"2009-03-21 01:16:00",729130,0.513,254.7,3.551,0.034,14.08,105.74,13.97,14.97,25.23,0,110.4,13.32,14.77,216.7
"2009-03-21 01:16:30",729131,0.492,247.6,1.8,0.035,14.08,105.7304,13.94,14.96,25.24,0,110.4,13.33,14.74,209.6
"2009-03-21 01:17:00",729132,0.509,254.7,3.786,0.03,14.24,105.7167,13.91,14.94,25.27,0,110.4,13.33,14.71,216.7
"2009-03-21 01:17:30",729133,0.56,247.4,5.29,0.038,14.24,105.7152,13.9,14.95,25.32,0,110.4,13.33,14.70,209.4
"2009-03-21 01:18:00",729134,1.635,257.3,8.07,1.353,16.61,105.7152,13.9,15.06,25.44,0,110.4,13.29,14.70,219.3
"2009-03-21 01:18:30",729135,1.121,253.6,6.549,0.979,15.56,105.7152,13.9,15.1,25.5,0,110.4,13.29,14.70,215.6
"2009-03-21 01:19:00",729136,0.713,247,3.023,0.077,14.03,105.7152,13.9,14.92,25.37,0,110.4,13.33,14.70,209.0
"2009-03-21 01:19:30",729137,0.711,254.1,4.714,0.042,13.98,105.7152,13.9,14.91,25.4,0,110.4,13.33,14.70,216.1
"2009-03-21 01:20:00",729138,0.892,257.3,2.214,0.065,14.16,105.7119,13.89,14.9,25.43,0,110.4,13.33,14.70,219.3
"2009-03-21 01:20:30",729139,1.383,259.5,7.321,1.052,15.42,105.6983,13.86,15.07,25.67,0,110.4,13.29,14.66,221.5
"2009-03-21 01:21:00",729140,1.819,262.3,6.806,1.257,15.25,105.689,13.84,14.89,25.54,0,110.4,13.29,14.64,224.3
"2009-03-21 01:21:30",729141,1.962,256.8,9.15,1.357,15.16,105.6826,13.82,14.92,25.58,0,110.4,13.29,14.62,218.8
"2009-03-21 01:22:00",729142,2.091,258,7.01,1.34,15.48,105.6814,13.82,15.06,25.77,0,110.4,13.29,14.62,220.0
"2009-03-21 01:22:30",729143,1.147,256.4,3.322,0.052,12.68,105.6814,13.82,14.87,25.64,0,110.4,13.33,14.62,218.4
"2009-03-21 01:23:00",729144,1.294,261.9,2.185,0.056,12.43,105.6814,13.82,14.86,25.68,0,110.4,13.33,14.62,223.9
"2009-03-21 01:23:30",729145,1.508,267.5,2.647,0.087,12.63,105.6814,13.82,14.87,25.7,0,110.4,13.33,14.62,229.5
"2009-03-21 01:24:00",729146,1.558,266.6,1.299,0.076,12.91,105.6814,13.82,14.87,25.71,0,110.4,13.33,14.62,228.6
"2009-03-21 01:24:30",729147,1.736,268.6,1.84,0.131,13.36,105.6814,13.82,14.97,25.83,0,110.4,13.33,14.62,230.6
"2009-03-21 01:25:00",729148,2.891,274.2,6.329,1.259,15.17,105.6775,13.81,14.92,25.82,0,110.4,13.29,14.61,236.2
"2009-03-21 01:25:30",729149,2.088,270.7,2.41,0.127,13.42,105.6662,13.78,14.85,25.79,0,110.4,13.33,14.58,232.7
"2009-03-21 01:26:00",729150,2.165,268.2,2.539,0.053,13.26,105.6572,13.75,14.84,25.8,0,110.4,13.33,14.55,230.2
"2009-03-21 01:26:30",729151,2.131,270.1,1.573,0.075,13.26,105.6487,13.73,14.82,25.82,0,110.4,13.33,14.53,232.1
"2009-03-21 01:27:00",729152,2.046,266.4,1.141,0.059,13.39,105.6476,13.73,14.82,25.83,0,110.4,13.33,14.53,228.4
"2009-03-21 01:27:30",729153,2.061,266.5,1.216,0.075,13.49,105.6476,13.73,14.83,25.87,0,110.4,13.33,14.53,228.5
"2009-03-21 01:28:00",729154,2.089,267.6,1.302,0.065,13.61,105.6476,13.73,14.82,25.89,0,110.4,13.33,14.53,229.6
"2009-03-21 01:28:30",729155,2.044,266,1.475,0.063,13.82,105.6476,13.73,14.81,25.9,0,110.4,13.33,14.53,228.0
"2009-03-21 01:29:00",729156,1.956,266.2,1.014,0.049,13.89,105.6476,13.73,14.81,25.91,0,110.4,13.33,14.53,228.2
"2009-03-21 01:29:30",729157,1.927,264.4,2.748,0.045,14.07,105.6476,13.73,14.79,25.92,0,110.4,13.33,14.53,226.4
"2009-03-21 01:30:00",729158,2.543,264.7,5.998,1.148,16.09,105.6476,13.73,14.95,26.1,0,110.4,13.29,14.53,226.7
"2009-03-21 01:30:30",729159,1.858,260.5,3.107,0.856,14.47,105.6476,13.73,14.78,25.95,0,110.4,13.29,14.53,222.5
"2009-03-21 01:31:00",729160,2.833,269.4,7.595,1.301,16.14,105.6482,13.73,14.9,26.1,0,110.4,13.29,14.53,231.4
"2009-03-21 01:31:30",729161,1.985,265,5.157,0.899,14.62,105.6485,13.73,14.92,26.18,0,110.4,13.29,14.53,227.0
"2009-03-21 01:32:00",729162,2.693,270,7.145,1.378,15.99,105.6541,13.75,14.96,26.24,0,110.4,13.29,14.55,232.0
"2009-03-21 01:32:30",729163,1.529,263.1,2.843,0.744,13.12,105.6798,13.81,14.86,26.18,0,110.4,13.29,14.61,225.1
"2009-03-21 01:33:00",729164,1.278,261.7,1.712,0.171,12.7,105.6832,13.82,14.78,26.25,0,110.4,13.33,14.62,223.7
"2009-03-21 01:33:30",729165,1.576,258.3,1.242,0.078,12.61,105.6868,13.83,14.79,26.23,0,110.4,13.33,14.63,220.3
"2009-03-21 01:34:00",729166,2.694,262.7,7.423,1.349,14.85,105.688,13.83,14.95,26.44,0,110.3,13.3,14.63,224.7
"2009-03-21 01:34:30",729167,1.755,257.8,4.909,0.928,13.83,105.6913,13.84,14.94,26.25,0,110.4,13.3,14.64,219.8
"2009-03-21 01:35:00",729168,0.574,215.6,38.19,0.432,12.56,105.6684,13.78,14.77,26.21,0,110.4,13.33,14.58,177.6
"2009-03-21 01:35:30",729169,0.485,169,59.5,0.38,12.25,105.6635,13.77,14.74,26.96,0,110.4,13.33,14.57,131.0
"2009-03-21 01:36:00",729170,2.531,81.8,15.61,0.424,11.79,105.6319,13.69,14.72,28.94,0,110.4,13.33,14.49,43.8
"2009-03-21 01:36:30",729171,2.094,73.97,13.2,0.446,12.38,105.6136,13.64,14.68,29.21,0,110.3,13.34,14.44,36.0
"2009-03-21 01:37:00",729172,3.36,79.09,13.96,1.123,14.65,105.6008,13.61,14.66,28.62,0,110.4,13.3,14.41,41.1
"2009-03-21 01:37:30",729173,4.073,86.5,6.507,1.404,15.98,105.6026,13.62,14.86,28.71,0,110.3,13.3,14.41,48.5
"2009-03-21 01:38:00",729174,3.71,81,11.21,1.528,15.52,105.6038,13.62,14.74,28.42,0,110.3,13.3,14.42,43.0
"2009-03-21 01:38:30",729175,2.544,72.31,8.63,0.75,12.72,105.6062,13.62,14.56,28.09,0,110.4,13.3,14.42,34.3
"2009-03-21 01:39:00",729176,3.769,82.7,11.06,1.501,14.84,105.6025,13.61,14.75,28.15,0,110.3,13.3,14.41,44.7
"2009-03-21 01:39:30",729177,2.289,78.61,13.3,0.227,12.07,105.5896,13.58,14.55,27.87,0,110.4,13.34,14.38,40.6
"2009-03-21 01:40:00",729178,2.203,86.2,11.32,0.283,11.93,105.5768,13.55,14.55,27.65,0,110.3,13.33,14.35,48.2
"2009-03-21 01:40:30",729179,2.915,79.84,12.07,0.382,12.1,105.5765,13.55,14.53,27.45,0,110.3,13.34,14.35,41.8
"2009-03-21 01:41:00",729180,3.194,63.27,20.16,1.088,13.4,105.5798,13.56,14.67,27.69,0,110.3,13.31,14.36,25.3
"2009-03-21 01:41:30",729181,2.892,81.4,13.7,1.509,13.74,105.5796,13.56,14.55,27.66,0,110.3,13.31,14.36,43.4
"2009-03-21 01:42:00",729182,1.612,78.58,24.21,0.616,12.43,105.5646,13.52,14.5,27.7,0,110.3,13.34,14.32,40.6
"2009-03-21 01:42:30",729183,1.024,85.8,29.83,0.42,12.38,105.5468,13.47,14.48,27.8,0,110.3,13.34,14.27,47.8
"2009-03-21 01:43:00",729184,2.673,73.05,9.75,0.466,12.63,105.5477,13.47,14.47,27.88,0,110.3,13.33,14.27,35.1
"2009-03-21 01:43:30",729185,3.606,82,17.34,0.468,13.13,105.548,13.48,14.47,27.77,0,110.3,13.33,14.27,44.0
"2009-03-21 01:44:00",729186,3.994,71.85,15.03,1.566,15.91,105.548,13.48,14.59,27.88,0,110.3,13.3,14.27,33.8
"2009-03-21 01:44:30",729187,4.847,66.79,13.04,1.027,17.26,105.5469,13.47,14.63,27.89,0,110.3,13.3,14.27,28.8
"2009-03-21 01:45:00",729188,3.626,84.2,10.52,0.795,13.59,105.5452,13.47,14.41,27.84,0,110.3,13.3,14.27,46.2
"2009-03-21 01:45:30",729189,3.23,95.2,13.54,1.48,14.15,105.5396,13.45,14.39,27.89,0,110.3,13.3,14.25,57.2
"2009-03-21 01:46:00",729190,1.918,96.6,21.52,1.575,14.99,105.5275,13.42,14.58,28.08,0,110.3,13.3,14.22,58.6
"2009-03-21 01:46:30",729191,2.617,68.85,20.77,0.697,12.13,105.5165,13.39,14.37,28.01,0,110.3,13.3,14.19,30.8
"2009-03-21 01:47:00",729192,2.649,82.5,5.903,0.589,12.12,105.5142,13.39,14.36,28.06,0,110.3,13.33,14.19,44.5
"2009-03-21 01:47:30",729193,1.952,81.8,14.03,0.428,12.26,105.5142,13.39,14.36,27.96,0,110.3,13.33,14.19,43.8
"2009-03-21 01:48:00",729194,3.431,49.17,17.52,1.317,14.62,105.5142,13.39,14.48,27.93,0,110.3,13.31,14.19,11.2